Regional Weather Roundup
Issued by NWS

Home | Current Version | Previous Version | Graphics & Text | Print | Product List | Glossary On
Versions: 1 2 3 4 5 6 7 8 9 10 11 12 13 14 15 16 17 18 19 20 21 22 23 24 25 26 27 28 29 30 31 32 33 34 35 36 37 38 39 40 41 42 43 44 45 46 47 48 49 50
000
ASUS43 KDMX 281506
RWRIA

WEATHER ROUNDUP FOR IOWA
NATIONAL WEATHER SERVICE DES MOINES IA
1000 AM CDT FRI APR 28 2017

NOTE: "FAIR" INDICATES FEW OR NO CLOUDS BELOW 12,000 FEET WITH NO
SIGNIFICANT WEATHER AND/OR OBSTRUCTIONS TO VISIBILITY.

* - THESE STATIONS ARE NOT NWS STATIONS...THUS NOT UNDER NWS
QUALITY CONTROL.  THEY ALSO DO NOT REPORT WEATHER SUCH
AS PRECIPITATION OR FOG.

IAZ001>003-012>014-020>022-031>034-043>046-281600-
   NORTHWEST IOWA

CITY           SKY/WX    TMP DP  RH WIND       PRES   REMARKS
CARROLL *      MIX PCPN  36  32  87 NE12      29.88S WCI  27
CHEROKEE *     CLOUDY    37  31  79 E3        29.91R
DENISON *      LGT SNOW  34  32  93 NE12G17   29.89S WCI  25
LE MARS *      CLOUDY    37  30  75 E7        29.92S WCI  32
ORANGE CITY *  CLOUDY    36  32  87 E3        29.92R
SHELDON *      CLOUDY    37  30  75 NE10      29.90R WCI  30
SIOUX CITY     LGT RAIN  38  29  70 E9        29.90S WCI  31
SPENCER        CLOUDY    40  31  70 NE14      29.91R WCI  32
STORM LAKE *   CLOUDY    36  28  75 E8        29.90R WCI  29
$$

IAZ055>058-069>071-079>083-090>094-281600-
   SOUTHWEST IOWA

CITY           SKY/WX    TMP DP  RH WIND       PRES   REMARKS
ATLANTIC *     RAIN      36  34  93 NE20G25   29.82S WCI  25
AUDUBON *      LGT RAIN  36  30  80 NE14      29.86S WCI  27
CLARINDA *     CLOUDY    39  39 100 NE14G25   29.78S FOG     WCI  31
COUNCIL BLFS * FLURRIES  37  37 100 NE17G28   29.78F WCI  28
CRESTON *      LGT RAIN  37  36  93 NE22G32   29.79S WCI  27
HARLAN  *      LGT SNOW  36  36 100 NE20      29.86S WCI  25
LAMONI         LGT RAIN  40  37  89 NE16G28   29.77F FOG     WCI  31
RED OAK *      LGT RAIN  37  37 100 NE18G26   29.77F WCI  27
SHENANDOAH *   MIX PCPN  39  37  93 NE24G33   29.74F VSB 1   WCI  28
$$

IAZ047>049-059>061-072>074-084-281600-
   CENTRAL IOWA

CITY           SKY/WX    TMP DP  RH WIND       PRES   REMARKS
AMES           LGT RAIN  38  32  79 NE14G20   29.89S WCI  30
ANKENY *       LGT RAIN  37  32  81 E8G14     29.89F WCI  31
BOONE *        MIX PCPN  37  32  81 MISG      29.87F
CHARITON *     RAIN      39  36  87 NE14G20   29.83S WCI  31
DES MOINES     LGT RAIN  38  32  79 NE10      29.87F WCI  31
GRINNELL*      CLOUDY    38  29  68 NE13G20   29.90R WCI  31
KNOXVILLE *    LGT RAIN  39  32  75 NE14      29.85F WCI  31
MARSHALLTOWN   CLOUDY    39  29  67 E13       29.90R WCI  31
NEWTON *       CLOUDY    37  30  75 NE17      29.88S HAZE    WCI  28
PELLA *        LGT RAIN  39  33  77 NE5       29.89R
PERRY *        LGT RAIN  37  33  87 E12       29.88F WCI  29
$$

IAZ004>006-015-016-023>025-035-036-281600-
   NORTH CENTRAL IOWA

CITY           SKY/WX    TMP DP  RH WIND       PRES   REMARKS
ALGONA *       CLOUDY    39  30  70 CALM      29.91R
CLARION *      CLOUDY    39  30  70 E7        29.91R WCI  34
ESTHERVILLE    CLOUDY    39  32  76 NE8       29.92R WCI  33
FORT DODGE *   CLOUDY    37  27  65 E6        29.92R WCI  33
MASON CITY     CLOUDY    41  29  62 N8        29.92R
FOREST CITY *    N/A     43  34  70 N8        29.91R
WEBSTER CITY * CLOUDY    39  28  65 E9        29.89S WCI  33
IOWA FALLS *   CLOUDY    39  29  67 E6        29.92R
$$

IAZ007>011-017>019-026>030-037>042-050>054-066-281600-
   NORTHEAST IOWA

CITY           SKY/WX    TMP DP  RH WIND       PRES   REMARKS
CEDAR RAPIDS   CLOUDY    40  30  67 NE14      29.89S WCI  32
CHARLES CITY * CLOUDY    43  30  61 NE7       29.91R
CLINTON *      CLOUDY    43  34  70 NE12      29.93S
DECORAH *      CLOUDY    43  28  56 N6G13     29.90S
DUBUQUE        MOSUNNY   40  30  67 NE9       29.92F WCI  34
MONTICELLO *   MOSUNNY   41  30  65 NE9G17    29.91F
WATERLOO       CLOUDY    40  29  64 E8        29.92R WCI  34
$$

IAZ064-065-067-068-078-281600-
   EAST CENTRAL IOWA

CITY           SKY/WX    TMP DP  RH WIND       PRES   REMARKS
DAVENPORT      CLOUDY    43  35  73 NE13      29.90F
IOWA CITY      CLOUDY    43  32  65 NE12      29.90F
MT. PLEASANT * LGT RAIN  42  38  86 NE12      29.86S
MUSCATINE *    CLOUDY    45  36  70 NE13      29.88F
QUAD CITIES    CLOUDY    45  33  63 NE9       29.90S
$$

IAZ062-063-075>077-085>089-095>099-281600-
   SOUTHEAST IOWA

CITY           SKY/WX    TMP DP  RH WIND       PRES   REMARKS
BURLINGTON     LGT RAIN  44  41  89 NE13      29.84F
FAIRFIELD *    CLOUDY    43  34  70 NE15      29.84S
FORT MADISON * LGT RAIN  45  39  81 NE12      29.84F
KEOKUK *       CLOUDY    46  43  87 NE13G20   29.81F
OSKALOOSA *    LGT RAIN  40  35  81 NE13      29.86R WCI  33
CENTERVILLE *  RAIN      41  37  87 NE14      29.82S
OTTUMWA        LGT RAIN  42  36  79 NE14      29.85S
WASHINGTON *   CLOUDY    43  36  75 NE15G22   29.87F
$$

ABBREVIATIONS USED IN REMARKS
   TC - TEMPERATURES IN CELSIUS
  WCI - WIND CHILL INDEX
   HX - HEAT INDEX
  VSB - VISIBILITY
$$




USA.gov is the U.S. government's official web portal to all federal, state and local government web resources and services.